This is the latest recevied weather packets stored in our database for station/object M0JUI-1. If no packets are shown the sender has not sent any weather packets the latest 10 day(s).
| Time | Temp. | Humidity | Pressure | Rain* | Wind** | Luminosity | Snow |
|---|---|---|---|---|---|---|---|
| 1788271786 | 18.89° C | 1% | 1019.1 hPa | 0 mm | - | 123 W/m² | - |
| 1788271486 | 18.89° C | 1% | 1019.1 hPa | 0 mm | - | 126 W/m² | - |
| 1788271185 | 19.44° C | 1% | 1018.9 hPa | 0 mm | - | 152 W/m² | - |
| 1788270886 | 19.44° C | 99% | 1019.1 hPa | 0 mm | - | 203 W/m² | - |
| 1788270585 | 20° C | 99% | 1019.1 hPa | 0 mm | - | 325 W/m² | - |
| 1788270285 | 19.44° C | 99% | 1019.1 hPa | 0 mm | - | 458 W/m² | - |
| 1788269985 | 18.89° C | 1% | 1019.1 hPa | 0 mm | - | 233 W/m² | - |
| 1788269686 | 18.89° C | 1% | 1019.2 hPa | 0 mm | - | 219 W/m² | - |
| 1788269386 | 18.89° C | 1% | 1019.2 hPa | 0 mm | - | 223 W/m² | - |
| 1788269085 | 18.89° C | 99% | 1019.1 hPa | 0 mm | - | 216 W/m² | - |
| 1788268786 | 19.44° C | 99% | 1019.2 hPa | 0 mm | - | 252 W/m² | - |
| 1788268486 | 19.44° C | 99% | 1019.2 hPa | 0 mm | - | 317 W/m² | - |
| 1788268185 | 20° C | 99% | 1019.2 hPa | 0 mm | - | 311 W/m² | - |
| 1788267885 | 20° C | 99% | 1019.3 hPa | 0 mm | - | 354 W/m² | - |
| 1788267585 | 19.44° C | 99% | 1019.1 hPa | 0 mm | - | 403 W/m² | - |
| 1788267285 | 18.89° C | 99% | 1019.2 hPa | 0 mm | - | 330 W/m² | - |
| 1788266985 | 18.89° C | 1% | 1019.3 hPa | 0 mm | - | 346 W/m² | - |
| 1788266685 | 18.89° C | 1% | 1019.2 hPa | 0 mm | - | 193 W/m² | - |
| 1788266386 | 18.89° C | 1% | 1019.5 hPa | 0 mm | - | 191 W/m² | - |
| 1788266085 | 19.44° C | 99% | 1019.3 hPa | 0 mm | - | 211 W/m² | - |
| 1788265785 | 19.44° C | 99% | 1019.4 hPa | 0 mm | - | 748 W/m² | - |
| 1788265485 | 19.44° C | 99% | 1019.2 hPa | 0 mm | - | 294 W/m² | - |
| 1788265185 | 19.44° C | 99% | 1019.2 hPa | 0 mm | - | 265 W/m² | - |
| 1788264885 | 19.44° C | 99% | 1019.3 hPa | 0 mm | - | 370 W/m² | - |
| 1788264585 | 20.56° C | 99% | 1019.2 hPa | 0 mm | - | 252 W/m² | - |
* Rain latest hour (hover to see other rain measurements)
** Current wind speed in m/s (hover to see current wind gust speed)